sat.trackr.live / text

‹ back to catalog

KUIPER-00247

NORAD 67152 · 2025-301V

PAYLOAD ACTIVE UNKNOWN

§ Identity

Operator
Country
US
Launch date
2025-12-16
Launch site
AFETR
Launch vehicle
Mass (kg)
RCS (m²)

External: N2YO · Heavens-Above · Gunter

§ Orbital elements

Epoch: 2026-05-25T02:39:58.112928Z

Period
97.30 min
Inclination
51.8964°
Eccentricity
0.0000867
Mean motion
14.79932763 rev/d
Perigee alt
628.9 km
Apogee alt
630.1 km
Semi-major
7,007.7 km
B*
4.3213e-4
RAAN
80.1684°
Arg perigee
81.7784°
Mean anomaly
278.3277°
Rev number
2,515

§ Raw data

KUIPER-002471 67152U 25301V   26145.11108927  .00003075  00000+0  43213-3 0  99992 67152  51.8964  80.1684 0000867  81.7784 278.3277 14.79932763 25159

JSON: /api/v1/satellites/67152 · /tle

For live sub-satellite position, see the globe view (requires WebGL).

§ Visibility from observer

Set your observer location to see the next 7 days of passes ≥ 10°. The values pass through the URL so the page stays shareable.

No JS? Fill the form by hand. The geolocation button needs JavaScript.